| time (UTC) | temp F | wind direction | speed MPH | gust MPH | rain 1hr in | rain 24hr in | rain mn in | humidity % | barometer mb |
| 20260508222626 | 55 | 40 | 2.0 | 2.0 | 0.00 | 0.07 | 0.07 | 47 | 1010.9 |
| 20260508222123 | 55 | 298 | 3.0 | 3.0 | 0.00 | 0.07 | 0.07 | 48 | 1011.0 |
| 20260508221619 | 55 | 5 | 3.0 | 5.0 | 0.00 | 0.07 | 0.07 | 49 | 1010.9 |
| 20260508221115 | 56 | 314 | 4.0 | 5.0 | 0.00 | 0.07 | 0.07 | 47 | 1011.0 |
| 20260508220612 | 57 | 327 | 5.0 | 6.0 | 0.00 | 0.07 | 0.07 | 46 | 1011.0 |
| 20260508220108 | 57 | 185 | 0.0 | 1.0 | 0.00 | 0.07 | 0.07 | 45 | 1011.1 |
| 20260508215605 | 55 | 183 | 1.0 | 1.0 | 0.00 | 0.07 | 0.07 | 46 | 1011.0 |
| 20260508215102 | 54 | 240 | 2.0 | 2.0 | 0.00 | 0.07 | 0.07 | 48 | 1011.2 |
| 20260508214559 | 55 | 101 | 2.0 | 2.0 | 0.00 | 0.07 | 0.07 | 49 | 1011.1 |
| 20260508214055 | 54 | 81 | 1.0 | 2.0 | 0.00 | 0.07 | 0.07 | 48 | 1011.2 |
| 20260508213553 | 55 | 28 | 3.0 | 3.0 | 0.00 | 0.07 | 0.07 | 49 | 1011.1 |
| 20260508213048 | 55 | 116 | 2.0 | 2.0 | 0.00 | 0.07 | 0.07 | 48 | 1011.1 |
| 20260508212545 | 57 | 283 | 4.0 | 5.0 | 0.00 | 0.07 | 0.07 | 46 | 1011.1 |
| 20260508212042 | 57 | 260 | 2.0 | 2.0 | 0.00 | 0.07 | 0.07 | 46 | 1011.3 |
| 20260508211537 | 55 | 190 | 2.0 | 2.0 | 0.00 | 0.07 | 0.07 | 46 | 1011.0 |
| 20260508211034 | 56 | 11 | 4.0 | 5.0 | 0.00 | 0.07 | 0.07 | 47 | 1011.2 |
| 20260508210530 | 55 | 313 | 3.0 | 3.0 | 0.00 | 0.07 | 0.07 | 47 | 1011.1 |
| 20260508210028 | 56 | 233 | 2.0 | 3.0 | 0.00 | 0.07 | 0.07 | 46 | 1011.4 |
| 20260508205525 | 56 | 25 | 5.0 | 6.0 | 0.00 | 0.07 | 0.07 | 47 | 1011.4 |
| 20260508205021 | 55 | 310 | 2.0 | 2.0 | 0.00 | 0.07 | 0.07 | 48 | 1011.2 |
| 20260508204518 | 55 | 209 | 3.0 | 3.0 | 0.00 | 0.07 | 0.07 | 47 | 1011.5 |
| 20260508204014 | 55 | 298 | 4.0 | 6.0 | 0.00 | 0.07 | 0.07 | 47 | 1011.4 |
| 20260508203510 | 56 | 301 | 5.0 | 7.0 | 0.00 | 0.07 | 0.07 | 45 | 1011.6 |
| 20260508203006 | 55 | 264 | 3.0 | 5.0 | 0.00 | 0.07 | 0.07 | 48 | 1011.7 |
| 20260508202503 | 56 | 121 | 1.0 | 2.0 | 0.00 | 0.07 | 0.07 | 49 | 1011.8 |
| 20260508202000 | 56 | 291 | 6.0 | 8.0 | 0.00 | 0.07 | 0.07 | 46 | 1011.6 |
| 20260508201456 | 54 | 270 | 4.0 | 5.0 | 0.00 | 0.07 | 0.07 | 49 | 1011.7 |
| 20260508200953 | 55 | 167 | 0.0 | 1.0 | 0.00 | 0.07 | 0.07 | 49 | 1011.7 |
| 20260508200450 | 54 | 194 | 2.0 | 2.0 | 0.00 | 0.07 | 0.07 | 52 | 1012.0 |
| 20260508195945 | 53 | 13 | 4.0 | 6.0 | 0.00 | 0.07 | 0.07 | 53 | 1012.2 |
| 20260508195443 | 54 | 298 | 4.0 | 5.0 | 0.00 | 0.07 | 0.07 | 53 | 1012.0 |
| 20260508194939 | 53 | 276 | 6.0 | 8.0 | 0.00 | 0.07 | 0.07 | 53 | 1012.0 |
| 20260508194436 | 53 | 347 | 4.0 | 5.0 | 0.00 | 0.07 | 0.07 | 55 | 1011.9 |
| 20260508193933 | 52 | 189 | 2.0 | 3.0 | 0.00 | 0.07 | 0.07 | 56 | 1012.2 |
| 20260508193430 | 52 | 226 | 5.0 | 6.0 | 0.00 | 0.07 | 0.07 | 54 | 1012.3 |
| 20260508192926 | 52 | 309 | 6.0 | 9.0 | 0.00 | 0.07 | 0.07 | 55 | 1012.5 |
| 20260508192423 | 52 | 328 | 5.0 | 7.0 | 0.00 | 0.07 | 0.07 | 57 | 1012.4 |
| 20260508191920 | 53 | 235 | 2.0 | 2.0 | 0.00 | 0.07 | 0.07 | 56 | 1012.5 |
| 20260508191417 | 52 | 4 | 2.0 | 3.0 | 0.00 | 0.07 | 0.07 | 57 | 1012.4 |
| 20260508190914 | 50 | 240 | 1.0 | 3.0 | 0.00 | 0.07 | 0.07 | 60 | 1012.5 |
| 20260508190411 | 50 | 305 | 5.0 | 7.0 | 0.00 | 0.07 | 0.07 | 58 | 1012.6 |
| 20260508185907 | 51 | 13 | 9.0 | 14.0 | 0.00 | 0.07 | 0.07 | 58 | 1012.6 |
| 20260508185405 | 52 | 273 | 3.0 | 6.0 | 0.00 | 0.07 | 0.07 | 58 | 1012.8 |
| 20260508184901 | 50 | 239 | 5.0 | 6.0 | 0.00 | 0.07 | 0.07 | 60 | 1012.8 |
| 20260508184359 | 50 | 298 | 7.0 | 9.0 | 0.00 | 0.07 | 0.07 | 60 | 1012.8 |
| 20260508183850 | 50 | 335 | 4.0 | 6.0 | 0.00 | 0.07 | 0.07 | 60 | 1012.7 |
| 20260508183346 | 51 | 291 | 6.0 | 8.0 | 0.00 | 0.07 | 0.07 | 60 | 1012.8 |
| 20260508182842 | 53 | 327 | 4.0 | 7.0 | 0.00 | 0.07 | 0.07 | 59 | 1012.9 |
| 20260508182339 | 50 | 182 | 0.0 | 0.0 | 0.00 | 0.07 | 0.07 | 65 | 1012.9 |
| 20260508181835 | 49 | 228 | 3.0 | 5.0 | 0.00 | 0.07 | 0.07 | 64 | 1012.9 |
| 20260508181332 | 50 | 156 | 0.0 | 0.0 | 0.00 | 0.07 | 0.07 | 65 | 1013.0 |
| 20260508180829 | 50 | 231 | 4.0 | 6.0 | 0.00 | 0.07 | 0.07 | 67 | 1013.1 |
| 20260508180326 | 49 | 273 | 4.0 | 6.0 | 0.00 | 0.07 | 0.07 | 68 | 1013.1 |
| 20260508175822 | 49 | 190 | 0.0 | 0.0 | 0.00 | 0.07 | 0.07 | 71 | 1013.3 |
| 20260508175318 | 48 | 161 | 0.0 | 0.0 | 0.00 | 0.07 | 0.07 | 73 | 1013.0 |
| 20260508174817 | 48 | 157 | 2.0 | 2.0 | 0.00 | 0.07 | 0.07 | 71 | 1013.0 |
| 20260508174314 | 48 | 192 | 1.0 | 1.0 | 0.00 | 0.07 | 0.07 | 72 | 1013.0 |
| 20260508173810 | 47 | 197 | 0.0 | 0.0 | 0.00 | 0.07 | 0.07 | 73 | 1013.4 |
| 20260508173307 | 46 | 345 | 3.0 | 3.0 | 0.00 | 0.07 | 0.07 | 73 | 1013.1 |
| 20260508172803 | 47 | 222 | 2.0 | 2.0 | 0.00 | 0.07 | 0.07 | 73 | 1013.5 |
| 20260508172300 | 47 | 232 | 2.0 | 2.0 | 0.00 | 0.07 | 0.07 | 72 | 1013.4 |
| 20260508171756 | 48 | 210 | 1.0 | 3.0 | 0.00 | 0.07 | 0.07 | 72 | 1013.3 |
| 20260508171253 | 48 | 176 | 0.0 | 1.0 | 0.00 | 0.07 | 0.07 | 72 | 1013.4 |
| 20260508170750 | 48 | 267 | 3.0 | 3.0 | 0.00 | 0.07 | 0.07 | 73 | 1013.4 |
| 20260508170248 | 48 | 131 | 1.0 | 1.0 | 0.00 | 0.07 | 0.07 | 75 | 1013.4 |
| 20260508165744 | 47 | 181 | 3.0 | 3.0 | 0.00 | 0.07 | 0.07 | 76 | 1013.4 |
| 20260508165242 | 46 | 98 | 0.0 | 1.0 | 0.00 | 0.07 | 0.07 | 79 | 1013.3 |
| 20260508164738 | 45 | 51 | 1.0 | 2.0 | 0.00 | 0.07 | 0.07 | 83 | 1013.4 |
| 20260508164234 | 44 | 195 | 3.0 | 5.0 | 0.00 | 0.07 | 0.07 | 85 | 1013.5 |
| 20260508163733 | 44 | 165 | 1.0 | 1.0 | 0.00 | 0.07 | 0.07 | 88 | 1013.6 |
| 20260508163230 | 43 | 185 | 2.0 | 2.0 | 0.00 | 0.07 | 0.07 | 89 | 1013.5 |
| 20260508162725 | 42 | 219 | 3.0 | 3.0 | 0.00 | 0.07 | 0.07 | 89 | 1013.7 |
| 20260508162223 | 42 | 183 | 2.0 | 2.0 | 0.00 | 0.07 | 0.07 | 90 | 1013.8 |
| 20260508161719 | 41 | 182 | 1.0 | 1.0 | 0.00 | 0.07 | 0.07 | 90 | 1014.0 |
| 20260508161217 | 40 | 141 | 0.0 | 1.0 | 0.00 | 0.07 | 0.07 | 90 | 1013.9 |
| 20260508160715 | 40 | 148 | 1.0 | 1.0 | 0.00 | 0.07 | 0.07 | 90 | 1014.0 |
| 20260508160213 | 40 | 232 | 2.0 | 2.0 | 0.00 | 0.07 | 0.07 | 90 | 1013.9 |
| 20260508155709 | 39 | 51 | 1.0 | 2.0 | 0.00 | 0.07 | 0.07 | 90 | 1013.8 |
| 20260508155206 | 39 | 180 | 0.0 | 1.0 | 0.00 | 0.07 | 0.07 | 90 | 1014.2 |
| 20260508154703 | 39 | 172 | 1.0 | 1.0 | 0.00 | 0.07 | 0.07 | 90 | 1014.1 |
| 20260508154200 | 39 | 267 | 1.0 | 2.0 | 0.00 | 0.07 | 0.07 | 90 | 1013.9 |
| 20260508153656 | 40 | 185 | 1.0 | 1.0 | 0.00 | 0.07 | 0.07 | 90 | 1013.9 |
| 20260508153154 | 39 | 180 | 0.0 | 1.0 | 0.00 | 0.07 | 0.07 | 90 | 1013.8 |
| 20260508152650 | 39 | 85 | 2.0 | 2.0 | 0.07 | 0.07 | 0.07 | 89 | 1013.7 |
| 20260508152146 | 39 | 148 | 1.0 | 1.0 | 0.07 | 0.07 | 0.07 | 89 | 1013.6 |
| 20260508151643 | 39 | 143 | 1.0 | 1.0 | 0.00 | 0.06 | 0.06 | 89 | 1013.9 |
| 20260508151139 | 39 | 183 | 1.0 | 1.0 | 0.00 | 0.06 | 0.06 | 89 | 1013.9 |
| 20260508150636 | 39 | 191 | 1.0 | 1.0 | 0.00 | 0.06 | 0.06 | 89 | 1013.8 |
| 20260508150133 | 39 | 216 | 1.0 | 1.0 | 0.00 | 0.06 | 0.06 | 89 | 1013.7 |
| 20260508145629 | 39 | 170 | 0.0 | 0.0 | 0.00 | 0.06 | 0.06 | 89 | 1013.4 |
| 20260508145125 | 39 | 167 | 0.0 | 0.0 | 0.00 | 0.06 | 0.06 | 89 | 1013.8 |
| 20260508144623 | 39 | 157 | 0.0 | 1.0 | 0.00 | 0.06 | 0.06 | 89 | 1013.8 |
| 20260508144121 | 38 | 340 | 2.0 | 2.0 | 0.00 | 0.06 | 0.06 | 88 | 1013.7 |
| 20260508143618 | 38 | 336 | 4.0 | 5.0 | 0.00 | 0.06 | 0.06 | 88 | 1013.7 |
| 20260508143114 | 38 | 20 | 5.0 | 6.0 | 0.00 | 0.06 | 0.06 | 88 | 1013.7 |
| 20260508142611 | 38 | 28 | 3.0 | 3.0 | 0.00 | 0.06 | 0.06 | 87 | 1013.9 |
| 20260508142108 | 38 | 22 | 2.0 | 2.0 | 0.05 | 0.06 | 0.06 | 87 | 1013.7 |
| 20260508141604 | 39 | 9 | 3.0 | 3.0 | 0.12 | 0.06 | 0.06 | 87 | 1013.7 |
| 20260508141102 | 39 | 327 | 3.0 | 3.0 | 0.07 | 0.05 | 0.05 | 86 | 1013.8 |
| 20260508140559 | 40 | 58 | 2.0 | 3.0 | 0.05 | 0.04 | 0.04 | 86 | 1013.8 |
| 20260508140055 | 40 | 19 | 6.0 | 8.0 | 0.05 | 0.04 | 0.04 | 85 | 1013.7 |
| 20260508135551 | 40 | 356 | 2.0 | 2.0 | 0.07 | 0.03 | 0.03 | 84 | 1013.7 |
| 20260508135047 | 41 | 294 | 5.0 | 6.0 | 0.07 | 0.03 | 0.03 | 83 | 1013.4 |
| 20260508134544 | 41 | 206 | 1.0 | 2.0 | 0.00 | 0.02 | 0.02 | 82 | 1013.4 |
| 20260508134041 | 41 | 193 | 2.0 | 2.0 | 0.00 | 0.02 | 0.02 | 81 | 1013.0 |
| 20260508133538 | 41 | 195 | 2.0 | 2.0 | 0.05 | 0.02 | 0.02 | 81 | 1013.3 |
| 20260508133035 | 41 | 189 | 1.0 | 1.0 | 0.12 | 0.02 | 0.02 | 79 | 1013.0 |
| 20260508132533 | 42 | 195 | 1.0 | 1.0 | 0.07 | 0.01 | 0.01 | 78 | 1012.8 |
| 20260508132030 | 43 | 243 | 2.0 | 3.0 | 0.00 | 0.00 | 0.00 | 79 | 1012.9 |
| 20260508131525 | 43 | 207 | 2.0 | 3.0 | 0.00 | 0.00 | 0.00 | 79 | 1012.8 |
| 20260508131022 | 43 | 167 | 0.0 | 1.0 | 0.00 | 0.00 | 0.00 | 80 | 1012.7 |
| 20260508130519 | 43 | 180 | 0.0 | 0.0 | 0.00 | 0.00 | 0.00 | 80 | 1012.5 |
| 20260508130015 | 43 | 171 | 1.0 | 2.0 | 0.00 | 0.00 | 0.00 | 81 | 1012.7 |
| 20260508125511 | 42 | 171 | 0.0 | 1.0 | 0.00 | 0.00 | 0.00 | 81 | 1012.4 |
| 20260508125009 | 42 | 162 | 1.0 | 1.0 | 0.00 | 0.00 | 0.00 | 81 | 1012.3 |
| 20260508124507 | 42 | 158 | 1.0 | 2.0 | 0.00 | 0.00 | 0.00 | 81 | 1012.0 |
| 20260508124004 | 43 | 159 | 1.0 | 1.0 | 0.00 | 0.00 | 0.00 | 81 | 1012.2 |
| 20260508123503 | 42 | 166 | 3.0 | 3.0 | 0.00 | 0.00 | 0.00 | 81 | 1012.1 |
| 20260508122958 | 42 | 136 | 3.0 | 3.0 | 0.00 | 0.00 | 0.00 | 82 | 1012.1 |
| 20260508122455 | 42 | 120 | 3.0 | 3.0 | 0.00 | 0.00 | 0.00 | 84 | 1012.1 |
| 20260508121952 | 41 | 117 | 2.0 | 2.0 | 0.00 | 0.00 | 0.00 | 85 | 1012.2 |
| 20260508121450 | 41 | 125 | 2.0 | 2.0 | 0.00 | 0.00 | 0.00 | 87 | 1012.2 |
| 20260508120948 | 40 | 181 | 3.0 | 3.0 | 0.00 | 0.00 | 0.00 | 87 | 1012.3 |
| 20260508120446 | 41 | 170 | 1.0 | 2.0 | 0.00 | 0.00 | 0.00 | 88 | 1012.4 |
| 20260508115943 | 41 | 162 | 2.0 | 2.0 | 0.00 | 0.00 | 0.00 | 89 | 1012.3 |
| 20260508115441 | 40 | 136 | 0.0 | 0.0 | 0.00 | 0.00 | 0.00 | 90 | 1012.3 |
| 20260508114937 | 39 | 153 | 2.0 | 2.0 | 0.00 | 0.00 | 0.00 | 90 | 1012.3 |
| 20260508114435 | 38 | 144 | 1.0 | 1.0 | 0.00 | 0.00 | 0.00 | 90 | 1012.4 |
| 20260508113931 | 38 | 151 | 1.0 | 1.0 | 0.00 | 0.00 | 0.00 | 90 | 1012.4 |
| 20260508113429 | 39 | 154 | 1.0 | 1.0 | 0.00 | 0.00 | 0.00 | 90 | 1012.4 |
| 20260508112926 | 37 | 145 | 1.0 | 1.0 | 0.00 | 0.00 | 0.00 | 91 | 1012.6 |
| 20260508112422 | 37 | 140 | 1.0 | 1.0 | 0.00 | 0.00 | 0.00 | 91 | 1012.6 |
| 20260508111919 | 37 | 144 | 0.0 | 0.0 | 0.00 | 0.00 | 0.00 | 90 | 1012.6 |
| 20260508111416 | 37 | 144 | 0.0 | 0.0 | 0.00 | 0.00 | 0.00 | 90 | 1012.7 |
| 20260508110913 | 37 | 146 | 0.0 | 0.0 | 0.00 | 0.00 | 0.00 | 90 | 1012.7 |
| 20260508110410 | 37 | 160 | 0.0 | 0.0 | 0.00 | 0.00 | 0.00 | 90 | 1013.0 |
| 20260508105904 | 36 | 151 | 0.0 | 0.0 | 0.00 | 0.00 | 0.00 | 90 | 1012.8 |
| 20260508105401 | 36 | 150 | 0.0 | 0.0 | 0.00 | 0.00 | 0.00 | 90 | 1012.8 |
| 20260508104859 | 36 | 151 | 1.0 | 1.0 | 0.00 | 0.00 | 0.00 | 90 | 1012.5 |
| 20260508104356 | 36 | 154 | 0.0 | 1.0 | 0.00 | 0.00 | 0.00 | 90 | 1012.5 |
| 20260508103853 | 36 | 153 | 0.0 | 0.0 | 0.00 | 0.00 | 0.00 | 90 | 1012.4 |
| 20260508103349 | 35 | 154 | 0.0 | 0.0 | 0.00 | 0.00 | 0.00 | 90 | 1012.5 |
| 20260508102847 | 35 | 153 | 0.0 | 0.0 | 0.00 | 0.00 | 0.00 | 90 | 1012.6 |
| 20260508102345 | 35 | 152 | 0.0 | 0.0 | 0.00 | 0.00 | 0.00 | 89 | 1012.8 |
| 20260508101842 | 35 | 151 | 0.0 | 0.0 | 0.00 | 0.00 | 0.00 | 89 | 1012.7 |
| 20260508101339 | 35 | 160 | 0.0 | 0.0 | 0.00 | 0.00 | 0.00 | 89 | 1012.8 |
| 20260508100837 | 35 | 152 | 0.0 | 0.0 | 0.00 | 0.00 | 0.00 | 89 | 1012.6 |
| 20260508100335 | 35 | 157 | 0.0 | 0.0 | 0.00 | 0.00 | 0.00 | 89 | 1012.6 |
| 20260508095830 | 35 | 145 | 0.0 | 0.0 | 0.00 | 0.00 | 0.00 | 89 | 1012.5 |
| 20260508095328 | 34 | 141 | 0.0 | 1.0 | 0.00 | 0.00 | 0.00 | 89 | 1012.6 |
| 20260508094825 | 34 | 153 | 0.0 | 0.0 | 0.00 | 0.00 | 0.00 | 88 | 1012.7 |
| 20260508094322 | 34 | 129 | 1.0 | 1.0 | 0.00 | 0.00 | 0.00 | 88 | 1012.5 |
| 20260508093819 | 34 | 138 | 1.0 | 1.0 | 0.00 | 0.00 | 0.00 | 88 | 1012.5 |
| 20260508093317 | 34 | 135 | 1.0 | 1.0 | 0.00 | 0.00 | 0.00 | 88 | 1012.5 |
| 20260508092814 | 35 | 150 | 0.0 | 0.0 | 0.00 | 0.00 | 0.00 | 88 | 1012.3 |
| 20260508092314 | 35 | 153 | 0.0 | 0.0 | 0.00 | 0.00 | 0.00 | 87 | 1012.3 |
| 20260508091810 | 36 | 153 | 0.0 | 0.0 | 0.00 | 0.00 | 0.00 | 87 | 1012.1 |
| 20260508091306 | 35 | 142 | 0.0 | 0.0 | 0.00 | 0.00 | 0.00 | 87 | 1012.2 |
| 20260508090803 | 35 | 135 | 0.0 | 1.0 | 0.00 | 0.00 | 0.00 | 87 | 1012.5 |
| 20260508090301 | 35 | 136 | 1.0 | 1.0 | 0.00 | 0.00 | 0.00 | 87 | 1012.5 |
| 20260508085757 | 35 | 149 | 0.0 | 0.0 | 0.00 | 0.00 | 0.00 | 87 | 1012.2 |
| 20260508085255 | 35 | 120 | 0.0 | 0.0 | 0.00 | 0.00 | 0.00 | 87 | 1012.3 |
| 20260508084750 | 35 | 149 | 0.0 | 1.0 | 0.00 | 0.00 | 0.00 | 86 | 1012.1 |
| 20260508084248 | 36 | 148 | 0.0 | 0.0 | 0.00 | 0.00 | 0.00 | 86 | 1012.1 |
| 20260508083746 | 37 | 125 | 1.0 | 1.0 | 0.00 | 0.00 | 0.00 | 86 | 1012.0 |
| 20260508083243 | 36 | 92 | 2.0 | 3.0 | 0.00 | 0.00 | 0.00 | 86 | 1012.3 |
| 20260508082742 | 36 | 109 | 2.0 | 2.0 | 0.00 | 0.00 | 0.00 | 85 | 1012.2 |
| 20260508082241 | 36 | 106 | 1.0 | 2.0 | 0.00 | 0.00 | 0.00 | 85 | 1012.1 |
| 20260508081738 | 37 | 134 | 2.0 | 2.0 | 0.00 | 0.00 | 0.00 | 85 | 1011.9 |
| 20260508081234 | 37 | 140 | 0.0 | 0.0 | 0.00 | 0.00 | 0.00 | 85 | 1012.0 |
| 20260508080731 | 37 | 134 | 1.0 | 1.0 | 0.00 | 0.00 | 0.00 | 85 | 1011.9 |
| 20260508080229 | 38 | 126 | 1.0 | 1.0 | 0.00 | 0.00 | 0.00 | 85 | 1012.0 |
| 20260508075726 | 39 | 172 | 0.0 | 0.0 | 0.00 | 0.00 | 0.00 | 85 | 1011.9 |
| 20260508075222 | 39 | 172 | 0.0 | 0.0 | 0.00 | 0.00 | 0.00 | 85 | 1011.7 |
| 20260508074720 | 40 | 168 | 0.0 | 0.0 | 0.00 | 0.00 | 0.00 | 85 | 1011.8 |
| 20260508074218 | 40 | 51 | 3.0 | 5.0 | 0.00 | 0.00 | 0.00 | 85 | 1011.8 |
| 20260508073714 | 40 | 130 | 1.0 | 1.0 | 0.00 | 0.00 | 0.00 | 85 | 1011.8 |
| 20260508073213 | 40 | 169 | 0.0 | 0.0 | 0.00 | 0.00 | 0.00 | 85 | 1011.8 |
| 20260508072708 | 40 | 169 | 0.0 | 0.0 | 0.00 | 0.00 | 0.00 | 85 | 1011.8 |
| 20260508072205 | 40 | 169 | 0.0 | 0.0 | 0.00 | 0.00 | 0.00 | 85 | 1011.7 |
| 20260508071702 | 40 | 171 | 0.0 | 0.0 | 0.00 | 0.00 | 0.00 | 84 | 1012.0 |
| 20260508071201 | 40 | 200 | 1.0 | 2.0 | 0.00 | 0.00 | 0.00 | 84 | 1011.8 |
| 20260508070658 | 40 | 105 | 2.0 | 2.0 | 0.00 | 0.00 | 0.00 | 84 | 1011.7 |
| 20260508070157 | 40 | 131 | 1.0 | 1.0 | 0.00 | 0.00 | 0.00 | 84 | 1011.6 |
| 20260508065653 | 40 | 157 | 1.0 | 1.0 | 0.00 | 0.00 | 0.00 | 83 | 1011.5 |
| 20260508065151 | 40 | 160 | 0.0 | 0.0 | 0.00 | 0.00 | 0.00 | 83 | 1011.6 |
| 20260508064648 | 40 | 159 | 0.0 | 1.0 | 0.00 | 0.00 | 0.00 | 83 | 1011.7 |
| 20260508064147 | 40 | 182 | 0.0 | 0.0 | 0.00 | 0.00 | 0.00 | 82 | 1011.4 |
| 20260508063644 | 40 | 147 | 0.0 | 1.0 | 0.00 | 0.00 | 0.00 | 82 | 1011.5 |
| 20260508063141 | 40 | 164 | 0.0 | 0.0 | 0.00 | 0.00 | 0.00 | 81 | 1011.6 |
| 20260508062639 | 40 | 164 | 0.0 | 0.0 | 0.00 | 0.00 | 0.00 | 81 | 1011.4 |
| 20260508062135 | 40 | 163 | 0.0 | 0.0 | 0.00 | 0.00 | 0.00 | 80 | 1011.6 |
| 20260508061633 | 40 | 163 | 0.0 | 0.0 | 0.00 | 0.00 | 0.00 | 80 | 1011.3 |
| 20260508061130 | 40 | 165 | 0.0 | 0.0 | 0.00 | 0.00 | 0.00 | 79 | 1011.5 |
| 20260508060627 | 40 | 81 | 0.0 | 0.0 | 0.00 | 0.00 | 0.00 | 79 | 1011.5 |
| 20260508060124 | 40 | 327 | 3.0 | 3.0 | 0.00 | 0.00 | 0.00 | 79 | 1011.7 |
| 20260508055619 | 41 | 148 | 1.0 | 1.0 | 0.00 | 0.00 | 0.00 | 78 | 1011.6 |
| 20260508055116 | 41 | 168 | 0.0 | 0.0 | 0.00 | 0.00 | 0.00 | 77 | 1011.6 |
| 20260508054613 | 41 | 138 | 1.0 | 2.0 | 0.00 | 0.00 | 0.00 | 76 | 1011.7 |
| 20260508054111 | 41 | 174 | 0.0 | 0.0 | 0.00 | 0.00 | 0.00 | 75 | 1011.5 |
| 20260508053607 | 41 | 175 | 0.0 | 1.0 | 0.00 | 0.00 | 0.00 | 75 | 1011.9 |
| 20260508053105 | 41 | 76 | 3.0 | 3.0 | 0.00 | 0.00 | 0.00 | 75 | 1012.1 |
| 20260508052602 | 41 | 165 | 0.0 | 0.0 | 0.00 | 0.00 | 0.00 | 75 | 1011.9 |
| 20260508052059 | 41 | 159 | 0.0 | 0.0 | 0.00 | 0.00 | 0.00 | 75 | 1011.9 |
| 20260508051555 | 41 | 156 | 0.0 | 0.0 | 0.00 | 0.00 | 0.00 | 75 | 1011.7 |
| 20260508051051 | 41 | 166 | 0.0 | 0.0 | 0.00 | 0.00 | 0.00 | 76 | 1011.9 |
| 20260508050547 | 41 | 144 | 1.0 | 1.0 | 0.00 | 0.00 | 0.00 | 77 | 1011.7 |
| 20260508050045 | 41 | 175 | 0.0 | 0.0 | 0.00 | 0.00 | 0.00 | 79 | 1011.8 |
| 20260508045541 | 40 | 165 | 0.0 | 0.0 | 0.00 | 0.00 | 0.00 | 80 | 1011.9 |
| 20260508045038 | 40 | 121 | 0.0 | 0.0 | 0.00 | 0.00 | 0.00 | 82 | 1011.8 |
| 20260508044536 | 39 | 84 | 0.0 | 1.0 | 0.00 | 0.00 | 0.00 | 84 | 1012.1 |
| 20260508044031 | 39 | 45 | 3.0 | 3.0 | 0.00 | 0.00 | 0.00 | 84 | 1012.1 |
| 20260508043528 | 39 | 154 | 0.0 | 1.0 | 0.00 | 0.00 | 0.00 | 84 | 1012.1 |
| 20260508043026 | 39 | 167 | 1.0 | 1.0 | 0.00 | 0.00 | 0.00 | 84 | 1012.0 |
| 20260508042522 | 39 | 155 | 0.0 | 0.0 | 0.00 | 0.00 | 0.00 | 84 | 1011.7 |
| 20260508042020 | 39 | 130 | 1.0 | 1.0 | 0.00 | 0.00 | 0.00 | 84 | 1011.6 |
| 20260508041516 | 39 | 175 | 0.0 | 0.0 | 0.00 | 0.00 | 0.00 | 84 | 1011.6 |
| 20260508041013 | 38 | 175 | 0.0 | 0.0 | 0.00 | 0.00 | 0.00 | 84 | 1011.8 |
| 20260508040510 | 38 | 175 | 0.0 | 0.0 | 0.00 | 0.00 | 0.00 | 83 | 1011.8 |
| 20260508040007 | 39 | 175 | 0.0 | 0.0 | 0.00 | 0.02 | 0.02 | 83 | 1011.7 |
| 20260508035504 | 39 | 175 | 0.0 | 0.0 | 0.00 | 0.02 | 0.02 | 83 | 1011.7 |
| 20260508035001 | 39 | 175 | 0.0 | 0.0 | 0.00 | 0.02 | 0.02 | 83 | 1011.6 |
| 20260508034458 | 39 | 176 | 0.0 | 0.0 | 0.00 | 0.02 | 0.02 | 82 | 1011.8 |
| 20260508033955 | 39 | 176 | 0.0 | 0.0 | 0.00 | 0.02 | 0.02 | 82 | 1011.8 |
| 20260508033453 | 39 | 176 | 0.0 | 0.0 | 0.00 | 0.02 | 0.02 | 82 | 1011.8 |
| 20260508032950 | 39 | 177 | 0.0 | 0.0 | 0.00 | 0.02 | 0.02 | 82 | 1011.8 |
| 20260508032447 | 39 | 153 | 0.0 | 0.0 | 0.00 | 0.02 | 0.02 | 81 | 1011.6 |
| 20260508031944 | 39 | 155 | 1.0 | 1.0 | 0.00 | 0.02 | 0.02 | 81 | 1011.6 |
| 20260508031436 | 39 | 157 | 1.0 | 1.0 | 0.00 | 0.02 | 0.02 | 80 | 1011.3 |
| 20260508030931 | 39 | 147 | 0.0 | 0.0 | 0.00 | 0.02 | 0.02 | 80 | 1011.3 |
| 20260508030429 | 39 | 147 | 0.0 | 0.0 | 0.00 | 0.02 | 0.02 | 80 | 1011.4 |
| 20260508025926 | 39 | 131 | 1.0 | 2.0 | 0.00 | 0.02 | 0.02 | 79 | 1011.1 |
| 20260508025423 | 39 | 169 | 0.0 | 0.0 | 0.00 | 0.02 | 0.02 | 78 | 1011.3 |
| 20260508024919 | 39 | 178 | 1.0 | 1.0 | 0.00 | 0.02 | 0.02 | 77 | 1011.3 |
| 20260508024416 | 39 | 156 | 0.0 | 0.0 | 0.00 | 0.02 | 0.02 | 76 | 1010.9 |
| 20260508023913 | 39 | 156 | 0.0 | 0.0 | 0.00 | 0.02 | 0.02 | 76 | 1011.1 |
| 20260508023410 | 39 | 146 | 0.0 | 0.0 | 0.00 | 0.02 | 0.02 | 75 | 1011.1 |
| 20260508022907 | 39 | 97 | 2.0 | 2.0 | 0.00 | 0.02 | 0.02 | 75 | 1011.2 |
| 20260508022402 | 39 | 132 | 2.0 | 2.0 | 0.00 | 0.02 | 0.02 | 74 | 1011.3 |
| 20260508021859 | 39 | 141 | 0.0 | 1.0 | 0.00 | 0.02 | 0.02 | 73 | 1011.2 |
| 20260508021355 | 39 | 103 | 2.0 | 2.0 | 0.00 | 0.02 | 0.02 | 73 | 1011.3 |
| 20260508020851 | 39 | 110 | 2.0 | 2.0 | 0.00 | 0.02 | 0.02 | 73 | 1011.0 |
| 20260508020349 | 39 | 148 | 0.0 | 0.0 | 0.00 | 0.02 | 0.02 | 72 | 1010.9 |
| 20260508015846 | 40 | 149 | 0.0 | 0.0 | 0.00 | 0.02 | 0.02 | 71 | 1011.0 |
| 20260508015344 | 40 | 75 | 2.0 | 2.0 | 0.00 | 0.02 | 0.02 | 71 | 1010.8 |
| 20260508014840 | 41 | 89 | 2.0 | 2.0 | 0.00 | 0.02 | 0.02 | 70 | 1011.2 |
| 20260508014338 | 41 | 124 | 1.0 | 1.0 | 0.00 | 0.02 | 0.02 | 68 | 1011.0 |
| 20260508013838 | 42 | 34 | 2.0 | 2.0 | 0.00 | 0.02 | 0.02 | 66 | 1010.8 |
| 20260508013335 | 42 | 34 | 3.0 | 3.0 | 0.00 | 0.02 | 0.02 | 65 | 1010.8 |
| 20260508012832 | 43 | 28 | 3.0 | 3.0 | 0.00 | 0.02 | 0.02 | 64 | 1010.9 |
| 20260508012329 | 43 | 32 | 3.0 | 3.0 | 0.00 | 0.02 | 0.02 | 63 | 1010.8 |
| 20260508011827 | 43 | 20 | 4.0 | 5.0 | 0.00 | 0.02 | 0.02 | 64 | 1011.0 |
| 20260508011324 | 43 | 45 | 2.0 | 2.0 | 0.00 | 0.02 | 0.02 | 64 | 1010.8 |
| 20260508010821 | 43 | 81 | 2.0 | 2.0 | 0.00 | 0.02 | 0.02 | 64 | 1010.8 |
| 20260508010319 | 43 | 23 | 3.0 | 3.0 | 0.00 | 0.02 | 0.02 | 65 | 1010.9 |
| 20260508005816 | 44 | 94 | 2.0 | 2.0 | 0.00 | 0.02 | 0.02 | 63 | 1010.9 |
| 20260508005312 | 45 | 74 | 1.0 | 2.0 | 0.00 | 0.02 | 0.02 | 60 | 1010.5 |
| 20260508004808 | 46 | 107 | 1.0 | 2.0 | 0.00 | 0.02 | 0.02 | 60 | 1010.8 |
| 20260508004259 | 46 | 38 | 3.0 | 3.0 | 0.00 | 0.02 | 0.02 | 62 | 1010.6 |
| 20260508003755 | 47 | 234 | 0.0 | 1.0 | 0.00 | 0.02 | 0.02 | 58 | 1010.6 |
| 20260508003254 | 48 | 8 | 3.0 | 3.0 | 0.00 | 0.02 | 0.02 | 57 | 1010.4 |
| 20260508002749 | 48 | 66 | 2.0 | 2.0 | 0.00 | 0.02 | 0.02 | 57 | 1010.6 |
| 20260508002247 | 48 | 353 | 3.0 | 3.0 | 0.00 | 0.02 | 0.02 | 56 | 1010.2 |
| 20260508001743 | 48 | 286 | 2.0 | 2.0 | 0.00 | 0.02 | 0.02 | 56 | 1010.3 |
| 20260508001238 | 49 | 96 | 1.0 | 2.0 | 0.00 | 0.02 | 0.02 | 55 | 1010.3 |
| 20260508000735 | 49 | 23 | 2.0 | 2.0 | 0.00 | 0.02 | 0.02 | 57 | 1010.3 |
| 20260508000234 | 49 | 163 | 0.0 | 1.0 | 0.00 | 0.02 | 0.02 | 57 | 1010.2 |
| 20260507235728 | 50 | 124 | 1.0 | 1.0 | 0.00 | 0.02 | 0.02 | 56 | 1010.0 |
| 20260507235226 | 50 | 285 | 5.0 | 6.0 | 0.00 | 0.02 | 0.02 | 52 | 1009.8 |
| 20260507234723 | 50 | 254 | 2.0 | 2.0 | 0.00 | 0.02 | 0.02 | 53 | 1010.2 |
| 20260507234219 | 51 | 239 | 1.0 | 1.0 | 0.00 | 0.02 | 0.02 | 52 | 1010.0 |
| 20260507233716 | 51 | 185 | 0.0 | 0.0 | 0.00 | 0.02 | 0.02 | 54 | 1009.8 |
| 20260507233214 | 51 | 194 | 1.0 | 1.0 | 0.00 | 0.02 | 0.02 | 51 | 1009.7 |
| 20260507232710 | 51 | 298 | 3.0 | 3.0 | 0.00 | 0.02 | 0.02 | 50 | 1010.1 |
| 20260507232208 | 51 | 298 | 3.0 | 3.0 | 0.00 | 0.02 | 0.02 | 51 | 1010.0 |
| 20260507231704 | 52 | 328 | 2.0 | 2.0 | 0.00 | 0.02 | 0.02 | 50 | 1010.0 |
| 20260507231201 | 52 | 290 | 3.0 | 5.0 | 0.00 | 0.02 | 0.02 | 49 | 1009.8 |
| 20260507230658 | 52 | 165 | 1.0 | 1.0 | 0.00 | 0.02 | 0.02 | 49 | 1009.7 |
| 20260507230155 | 52 | 329 | 3.0 | 3.0 | 0.00 | 0.02 | 0.02 | 50 | 1009.8 |
| 20260507225655 | 52 | 268 | 2.0 | 3.0 | 0.00 | 0.02 | 0.02 | 49 | 1009.8 |
| 20260507225152 | 53 | 209 | 1.0 | 2.0 | 0.00 | 0.02 | 0.02 | 49 | 1009.8 |
| 20260507224647 | 54 | 254 | 1.0 | 2.0 | 0.00 | 0.02 | 0.02 | 49 | 1009.8 |
| 20260507224144 | 52 | 345 | 1.0 | 2.0 | 0.00 | 0.02 | 0.02 | 51 | 1009.8 |
| 20260507223640 | 51 | 285 | 1.0 | 2.0 | 0.00 | 0.02 | 0.02 | 51 | 1009.7 |
| 20260507223137 | 51 | 237 | 2.0 | 2.0 | 0.00 | 0.02 | 0.02 | 49 | 1009.8 |